Location: Kawakawa
(35.3830°S, 174.0670°E)
Time: 09:16:36
(UTC+13:00)

A-11 Canister half - Pass Details

Date: 11 December 2019
Orbit: 1525 x 1684 km, 47.3° (Epoch: 26 January)

Event Time Altitude Azimuth Distance (km) Brightness Sun altitude
Rises 20:41:31 0° 274° (W) 4,693 12.6 -2.6°
Reaches altitude 10° 20:44:46 10° 268° (W) 3,706 12.2 -3.2°
Maximum altitude 20:53:38 46° 196° (SSW) 1,970 10.1 -4.7°
Drops below altitude 10° 21:02:38 10° 124° (ESE) 3,740 10.8 -6.2°
Sets 21:05:56 0° 117° (ESE) 4,740 11.3 -6.8°
